Home > Weather > Mariehamn > Past weeks

Flag for Åland Islands Past Weather in Mariehamn, Åland Islands — Yesterday and Last 2 Weeks

Now
57 °F

Passing clouds.


Feels Like: 56 °F
Forecast: 48 / 63 °F
Wind: 7 mph from East

Location: Mariehamn / Aland Island

Current Time: May 28, 2016 at 7:16:52 AM

Latest Report: May 28, 2016 at 6:20 AM


Visibility: N/A

Pressure: 30.21 "Hg

Humidity: 72%

Dew Point: 48 °F

Location of MariehamnLocation

Past Weather in Mariehamn — Graph

°F

Mariehamn Temperature Yesterday

Maximum temperature yesterday: 55 °F (at 11:20 AM)
Minimum temperature yesterday: 48 °F (at 11:20 PM)
Average temperature yesterday: 52 °F

High & Low Weather Summary for the Past Weeks

 TemperatureHumidityPressure
High70 °F (May 24, 2:20 PM)100% (May 13, 6:50 AM)30.21 "Hg (May 13, 6:50 AM)
Low36 °F (May 13, 6:20 AM)45% (May 13, 1:50 PM)29.50 "Hg (May 14, 7:50 AM)
Average51 °F82%29.83 "Hg
* Reported May 13 6:20 AM — May 28 6:20 AM, Mariehamn, Weather by CustomWeather, © 2016

Note: Actual official high and low records may vary slightly from our data, if they occured in-between our weather recording intervals... More about our weather records

Advertising

Mariehamn Weather History for the Previous 24 Hours

Scroll right to see more
 ConditionsComfort  
Time TempWeatherWind HumidityBarometerVisibility
6:20 AM
Sat, May 28
57 °FPassing clouds.7 mph72%30.21 "HgN/A
5:50 AM55 °FPassing clouds.6 mph77%30.21 "HgN/A
5:20 AM55 °FPassing clouds.6 mph77%30.21 "HgN/A
4:50 AM54 °FSprinkles. Overcast.3 mph82%30.21 "HgN/A
4:20 AM54 °FLight rain. Overcast.3 mph82%30.21 "HgN/A
3:50 AM54 °FPassing clouds.5 mph88%30.21 "HgN/A
3:20 AM54 °FPassing clouds.5 mph88%30.21 "HgN/A
2:50 AM52 °FClear.8 mph94%30.18 "Hg10 mi
2:20 AM52 °FLight rain. Mostly cloudy.6 mph94%30.21 "HgN/A
1:50 AM52 °FLight rain. Overcast.2 mph94%30.21 "HgN/A
1:20 AM52 °FLight rain. Overcast.1 mph94%30.21 "HgN/A
12:50 AM54 °FLight rain. Overcast.3 mph88%30.21 "HgN/A
12:20 AM52 °FLight rain. Passing clouds.3 mph94%30.21 "HgN/A
11:50 PM
Fri, May 27
48 °FPassing clouds.3 mph94%30.18 "HgN/A
11:20 PM48 °FBroken clouds.2 mph94%30.18 "HgN/A
10:50 PM50 °FPartly sunny.No wind88%30.18 "HgN/A
10:20 PM52 °FSunny.2 mph88%30.18 "Hg10 mi
9:50 PM52 °FBroken clouds.6 mph88%30.18 "HgN/A
9:20 PM52 °FPartly sunny.8 mph88%30.18 "HgN/A
8:50 PM54 °FMostly cloudy.6 mph88%30.15 "HgN/A
7:20 PM54 °FOvercast.9 mph88%30.15 "HgN/A
6:50 PM54 °FOvercast.8 mph88%30.12 "HgN/A
6:20 PM55 °FMostly cloudy.7 mph82%30.12 "HgN/A
5:50 PM55 °FMostly cloudy.9 mph77%30.12 "HgN/A
5:20 PM54 °FOvercast.9 mph82%30.12 "HgN/A
4:50 PM54 °FOvercast.9 mph88%30.12 "HgN/A
4:20 PM55 °FOvercast.9 mph82%30.12 "HgN/A
3:50 PM54 °FMostly cloudy.10 mph88%30.09 "HgN/A
3:20 PM55 °FPartly sunny.9 mph82%30.09 "HgN/A
2:50 PM55 °FPartly sunny.8 mph82%30.09 "HgN/A
2:20 PM55 °FSprinkles. Overcast.8 mph88%30.09 "HgN/A
1:50 PM55 °FOvercast.12 mph77%30.09 "HgN/A
1:20 PM55 °FOvercast.10 mph77%30.09 "HgN/A
12:50 PM55 °FOvercast.8 mph82%30.07 "HgN/A
12:20 PM55 °FMostly cloudy.9 mph77%30.07 "HgN/A
11:50 AM54 °FSprinkles. Overcast.9 mph82%30.07 "HgN/A
11:20 AM55 °FMostly cloudy.8 mph77%30.07 "HgN/A
10:50 AM54 °FMostly cloudy.8 mph82%30.04 "HgN/A
10:20 AM54 °FMore clouds than sun.8 mph82%30.04 "HgN/A
9:50 AM54 °FOvercast.7 mph82%30.04 "HgN/A
9:20 AM54 °FSprinkles. Overcast.6 mph88%30.04 "HgN/A
8:50 AM52 °FOvercast.5 mph88%30.04 "HgN/A
8:20 AM52 °FMostly cloudy.5 mph88%30.01 "HgN/A
7:50 AM52 °FMostly cloudy.7 mph88%30.01 "HgN/A
7:20 AM52 °FPartly sunny.6 mph88%30.01 "HgN/A
Weather by CustomWeather, © 2016

See weather overviewHow to use our weather pages